Regional Weather Roundup
Issued by NWS

Home | Current Version | Previous Version | Graphics & Text | Print | Product List | Glossary On
Versions: 1 2 3 4 5 6 7 8 9 10 11 12 13 14 15 16 17 18 19 20 21 22 23 24 25 26 27 28 29 30 31 32 33 34 35 36 37 38 39 40 41 42 43 44 45 46 47 48 49 50
108
ASUS43 KTOP 241508
RWRKS

WEATHER ROUNDUP FOR KANSAS
NATIONAL WEATHER SERVICE GOODLAND KS
1000 AM CDT TUE MAY 24 2016

NOTE:  "FAIR" INDICATES FEW OR NO CLOUDS BELOW 12,000 FEET WITH NO
SIGNIFICANT WEATHER AND/OR OBSTRUCTIONS TO VISIBILITY.

KSZ001>006-013>018-027>032-041>047-241600-
NORTHWEST KANSAS

CITY           SKY/WX    TMP DP  RH WIND       PRES   REMARKS
GOODLAND       PTSUNNY   60  55  83 E16G22    29.94R
HAYS           CLOUDY    64  52  63 SE20      29.92F
HILL CITY      CLOUDY    63  58  83 SE15      29.93R
RUSSELL        PTSUNNY   65  59  81 SE22      29.91S
$$

KSZ061>065-074>080-084>089-241600-
SOUTHWEST KANSAS

CITY           SKY/WX    TMP DP  RH WIND       PRES   REMARKS
DODGE CITY     CLOUDY    64  63  96 E14       29.90S
ELKHART          N/A     68  58  70 W5          N/A
GARDEN CITY    CLOUDY    70  63  78 SE20      29.87R
GREAT BEND     CLOUDY    66  52  59 E15       29.94R
LIBERAL        PTSUNNY   75  64  69 SW9G17    29.87S
PRATT          TSTM      59  56  89 E15G22    29.94S
$$

KSZ066>073-081>083-090>101-241600-
SOUTHEAST KANSAS

CITY           SKY/WX    TMP DP  RH WIND       PRES   REMARKS
CHANUTE        LGT RAIN  65  62  90 CALM      29.96S
COFFEYVILLE    CLOUDY    72  67  84 CALM      29.94F
HUTCHINSON     CLOUDY    68  58  70 E13       29.94S
MEDICINE LODGE   N/A     71  66  84 E14       29.91R
NEWTON         PTSUNNY   64  57  77 E12G18    29.98S
PARSONS        CLOUDY    70  68  93 CALM      29.96S
WICHITA INTL   TSTM      64  58  80 NE18      29.96S
WICHITA JABRA  CLOUDY    65  58  78 NE12      29.95F
WICHITA MCCONL CLOUDY    66  59  77 E20G25    29.95F THUNDER
WINFIELD       CLOUDY    73  68  84 E8        29.94F
$$

KSZ007>012-019>026-033>040-048>060-102>105-241600-
NORTHEAST KANSAS

CITY           SKY/WX    TMP DP  RH WIND       PRES   REMARKS
CONCORDIA      CLOUDY    61  57  87 SE16G24   29.89F
EMPORIA        CLOUDY    65  59  81 NE7       29.97F
LAWRENCE       CLOUDY    66  62  87 SW7       30.04R
MANHATTAN      LGT RAIN  64 N/A N/A VRB3      30.00R
MARYSVILLE     RAIN      61  59  94 SE14      29.90F
OLATHE IND     TSTM      68  64  87 NW10      30.01R
OLATHE EXE     PTSUNNY   67  64  90 W9        30.00R
SALINA         CLOUDY    66  61  84 SE10      29.95F
TOPEKA BILLARD LGT RAIN  65  59  81 W6        30.02R
TOPEKA FORBES  LGT RAIN  64  60  87 W6        30.01F FOG
$$




USA.gov is the U.S. government's official web portal to all federal, state and local government web resources and services.